Погода в Марусине

Россия / Новосибирская область     55°02′18″N   82°45′18″E
темп.,
°C
ветер,
м/с
пор.,
м/с
влажн.,
%
обл.,
%
осадки,
мм/ч
давл.,
гПа
погр.,
м
15 мая, сб
сб1501:00+10зюз2245100 0.0 102314
04:00+10зюз354937 0.0 102267
07:00+11юз4105255 0.0 1022239
10:00+17зюз7113697 0.0 1021618
13:00+21зюз8103577 0.0 1019872
16:00+25з8103181 0.0 10181870
19:00+24з7103819 0.0 10161702
22:00+18юз5135482 0.0 1015316
16 мая, вс
вс1601:00+16зюз4976100 2.9 1016252
04:00+14зюз338398 0.0 101549
07:00+14з248073 0.0 1015144
10:00+20юз34585 0.0 1013577
13:00+25зюз6840100 0.0 10111523
16:00+27з61235100 0.0 10093229
19:00+25сз7104596 0.0 10071440
22:00+15св4790100 4.5 1011401
17 мая, пн
пн1701:00+12с479229 4.8 1014285
04:00+11с458997 0.0 1015417
07:00+10ссв458681 0.0 1017464
10:00+13ссв337061 0.0 1018677
13:00+17ссз2256100 0.0 10171190
16:00+20зсз344663 0.0 10161772
19:00+21зюз244549 0.0 10151316
22:00+17ю4560100 0.0 101395
18 мая, вт
вт1801:00+16ююз51374100 2.2 1011328
04:00+15ю61185100 3.1 1008298
07:00+16юз51176100 3.3 1006285
10:00+21зсз6958100 0.1 1006971
13:00+23зсз7104930 0.1 10051916
16:00+24сз8114299 0.0 10052771
19:00+21ссз6105813 0.4 10061420
22:00+15с597580 0.3 1008467
19 мая, ср
ср1901:00+12с3588100 0.3 1008204
04:00+11ссз369397 0.0 1008187
07:00+10ссв4685100 0.0 1008474
10:00+11ссв5681100 0.0 1008780
13:00+11ссв5671100 0.1 1008970
16:00+12ссв6770100 0.1 1008957
19:00+11ссв3754100 0.2 10101266
22:00+10ссв4948100 0.0 1010510